Time,TemperatureF,DewpointF,PressureIn,WindDirection,WindDirectionDegrees,WindSpeedMPH,WindSpeedGustMPH,Humidity,HourlyPrecipIn,Conditions,Clouds,dailyrainin,SolarRadiationWatts/m^2,SoftwareType,DateUTC
2013-01-11 00:00:00,34.7,34.7,28.88,NNW,346,0.0,-999.0,100,0.00,,,0.00,0,WeatherHawk,2013-01-11 06:00:00,
2013-01-11 00:05:00,34.9,34.9,28.88,North,3,0.0,-999.0,100,0.00,,,0.00,0,WeatherHawk,2013-01-11 06:05:00,
2013-01-11 00:10:00,35.0,35.0,28.87,SSE,152,0.0,-999.0,100,0.00,,,0.00,0,WeatherHawk,2013-01-11 06:10:00,
2013-01-11 00:15:00,35.5,35.5,28.87,SSE,152,0.0,-999.0,100,0.00,,,0.00,0,WeatherHawk,2013-01-11 06:15:00,
2013-01-11 00:20:00,35.3,35.3,28.87,SSE,152,0.0,-999.0,100,0.00,,,0.00,1,WeatherHawk,2013-01-11 06:20:00,
2013-01-11 00:25:00,35.6,35.6,28.89,SSE,152,0.0,-999.0,100,0.00,,,0.00,0,WeatherHawk,2013-01-11 06:25:00,
2013-01-11 00:30:00,35.9,35.9,28.88,SE,132,4.0,-999.0,100,0.00,,,0.00,0,WeatherHawk,2013-01-11 06:30:00,
2013-01-11 00:35:00,35.8,35.8,28.87,East,85,2.0,-999.0,100,0.00,,,0.00,0,WeatherHawk,2013-01-11 06:35:00,
2013-01-11 00:40:00,35.9,35.9,28.86,ESE,112,8.0,-999.0,100,0.00,,,0.00,0,WeatherHawk,2013-01-11 06:40:00,
2013-01-11 00:45:00,35.9,35.9,28.85,ESE,123,3.0,-999.0,100,0.00,,,0.00,0,WeatherHawk,2013-01-11 06:45:00,
2013-01-11 00:50:00,36.3,36.3,28.85,ENE,64,6.0,-999.0,100,0.00,,,0.00,0,WeatherHawk,2013-01-11 06:50:00,
2013-01-11 00:55:00,35.7,35.7,28.86,East,99,0.0,-999.0,100,0.00,,,0.00,0,WeatherHawk,2013-01-11 06:55:00,
2013-01-11 01:00:00,35.8,35.8,28.86,SE,144,0.0,-999.0,100,0.00,,,0.00,0,WeatherHawk,2013-01-11 07:00:00,
2013-01-11 01:05:00,35.7,35.7,28.86,North,351,0.0,-999.0,100,0.00,,,0.00,0,WeatherHawk,2013-01-11 07:05:00,
2013-01-11 01:10:00,35.4,35.4,28.86,NNW,341,0.0,-999.0,100,0.00,,,0.00,0,WeatherHawk,2013-01-11 07:10:00,
2013-01-11 01:15:00,35.6,35.6,28.86,WNW,295,0.0,-999.0,100,0.00,,,0.00,0,WeatherHawk,2013-01-11 07:15:00,
2013-01-11 01:20:00,36.0,36.0,28.86,South,173,0.0,-999.0,100,0.00,,,0.00,0,WeatherHawk,2013-01-11 07:20:00,
2013-01-11 01:25:00,36.1,36.1,28.84,East,101,0.0,-999.0,100,0.00,,,0.00,0,WeatherHawk,2013-01-11 07:25:00,
2013-01-11 01:30:00,36.2,36.2,28.85,SE,144,0.0,-999.0,100,0.00,,,0.00,0,WeatherHawk,2013-01-11 07:30:00,
2013-01-11 01:35:00,36.2,36.2,28.85,NE,51,0.0,-999.0,100,0.00,,,0.00,0,WeatherHawk,2013-01-11 07:35:00,
2013-01-11 01:40:00,36.2,36.2,28.84,SSE,150,0.0,-999.0,100,0.00,,,0.00,0,WeatherHawk,2013-01-11 07:40:00,
2013-01-11 01:45:00,36.0,36.0,28.83,South,172,0.0,-999.0,100,0.00,,,0.00,0,WeatherHawk,2013-01-11 07:45:00,
2013-01-11 01:50:00,35.8,35.8,28.83,ENE,67,1.0,-999.0,100,0.00,,,0.00,0,WeatherHawk,2013-01-11 07:50:00,
2013-01-11 01:55:00,35.9,35.9,28.82,ESE,102,0.0,-999.0,100,0.00,,,0.00,0,WeatherHawk,2013-01-11 07:55:00,
2013-01-11 02:00:00,36.0,36.0,28.82,ESE,103,0.0,-999.0,100,0.00,,,0.00,0,WeatherHawk,2013-01-11 08:00:00,
2013-01-11 02:05:00,36.2,36.2,28.81,ESE,109,0.0,-999.0,100,0.00,,,0.00,0,WeatherHawk,2013-01-11 08:05:00,
2013-01-11 02:09:00,35.9,35.9,28.81,ESE,102,0.0,-999.0,100,0.00,,,0.00,0,WeatherHawk,2013-01-11 08:09:00,
2013-01-11 02:10:00,35.8,35.8,28.81,ENE,58,0.0,-999.0,100,0.00,,,0.00,0,WeatherHawk,2013-01-11 08:10:00,
2013-01-11 02:14:00,35.6,35.6,28.81,NE,53,0.0,-999.0,100,0.00,,,0.00,0,WeatherHawk,2013-01-11 08:14:00,
2013-01-11 02:15:00,36.2,36.2,28.80,NE,39,0.0,-999.0,100,0.00,,,0.00,0,WeatherHawk,2013-01-11 08:15:00,
2013-01-11 02:20:00,36.0,36.0,28.80,North,0,0.0,-999.0,100,0.00,,,0.00,0,WeatherHawk,2013-01-11 08:20:00,
2013-01-11 02:24:00,35.9,35.9,28.79,NNE,13,0.0,-999.0,100,0.00,,,0.00,0,WeatherHawk,2013-01-11 08:24:00,
2013-01-11 02:25:00,35.9,35.9,28.79,North,0,0.0,-999.0,100,0.00,,,0.00,0,WeatherHawk,2013-01-11 08:25:00,
2013-01-11 02:30:00,35.3,35.3,28.80,West,273,0.0,-999.0,100,0.00,,,0.00,0,WeatherHawk,2013-01-11 08:30:00,
2013-01-11 02:34:00,35.7,35.7,28.79,West,276,0.0,-999.0,100,0.00,,,0.00,0,WeatherHawk,2013-01-11 08:34:00,
2013-01-11 02:35:00,35.6,35.6,28.79,WNW,302,0.0,-999.0,100,0.00,,,0.00,0,WeatherHawk,2013-01-11 08:35:00,
2013-01-11 02:40:00,35.5,35.5,28.78,WNW,302,1.0,-999.0,100,0.00,,,0.00,0,WeatherHawk,2013-01-11 08:40:00,
2013-01-11 02:45:00,35.6,35.6,28.79,NW,313,3.0,-999.0,100,0.00,,,0.00,0,WeatherHawk,2013-01-11 08:45:00,
2013-01-11 02:55:00,33.8,33.8,28.77,West,271,1.0,-999.0,100,0.00,,,0.00,0,WeatherHawk,2013-01-11 08:55:00,
2013-01-11 03:10:00,34.1,34.1,28.77,SW,219,0.0,-999.0,100,0.00,,,0.00,0,WeatherHawk,2013-01-11 09:10:00,
2013-01-11 03:20:00,34.5,34.5,28.77,South,169,0.0,-999.0,100,0.00,,,0.00,1,WeatherHawk,2013-01-11 09:20:00,
2013-01-11 03:25:00,34.4,34.4,28.77,South,169,0.0,-999.0,100,0.00,,,0.00,0,WeatherHawk,2013-01-11 09:25:00,
2013-01-11 03:30:00,34.5,34.5,28.79,SSE,161,0.0,-999.0,100,0.00,,,0.00,0,WeatherHawk,2013-01-11 09:30:00,
2013-01-11 03:35:00,34.7,34.7,28.78,SSE,161,0.0,-999.0,100,0.00,,,0.00,0,WeatherHawk,2013-01-11 09:35:00,
2013-01-11 03:40:00,34.8,34.8,28.78,SSE,161,0.0,-999.0,100,0.00,,,0.00,0,WeatherHawk,2013-01-11 09:40:00,
2013-01-11 03:45:00,34.6,34.6,28.77,SSE,161,0.0,-999.0,100,0.00,,,0.00,0,WeatherHawk,2013-01-11 09:45:00,
2013-01-11 03:48:00,35.3,35.3,28.77,WNW,299,0.0,-999.0,100,0.00,,,0.00,0,WeatherHawk,2013-01-11 09:48:00,
2013-01-11 03:55:00,34.7,34.7,28.77,SSE,161,0.0,-999.0,100,0.00,,,0.00,0,WeatherHawk,2013-01-11 09:55:00,
2013-01-11 03:58:00,34.8,34.8,28.76,NNW,337,2.0,-999.0,100,0.00,,,0.00,0,WeatherHawk,2013-01-11 09:58:00,
2013-01-11 04:00:00,34.2,34.2,28.77,SSE,161,0.0,-999.0,100,0.04,,,0.04,0,WeatherHawk,2013-01-11 10:00:00,
2013-01-11 04:03:00,34.5,34.5,28.77,NNW,335,0.0,-999.0,100,0.00,,,0.00,0,WeatherHawk,2013-01-11 10:03:00,
2013-01-11 04:05:00,34.3,34.3,28.76,SSE,161,0.0,-999.0,100,0.04,,,0.04,0,WeatherHawk,2013-01-11 10:05:00,
2013-01-11 04:13:00,34.5,34.5,28.77,SSW,195,0.0,-999.0,100,0.00,,,0.00,0,WeatherHawk,2013-01-11 10:13:00,
2013-01-11 04:48:00,33.8,33.8,28.77,SSE,161,0.0,-999.0,100,0.00,,,0.00,0,WeatherHawk,2013-01-11 10:48:00,
2013-01-11 05:08:00,34.7,34.7,28.76,SSE,161,0.0,-999.0,100,0.04,,,0.04,0,WeatherHawk,2013-01-11 11:08:00,
2013-01-11 05:13:00,34.6,34.6,28.76,WNW,287,0.0,-999.0,100,0.04,,,0.04,0,WeatherHawk,2013-01-11 11:13:00,
2013-01-11 05:18:00,34.3,34.3,28.77,WNW,302,0.0,-999.0,100,0.04,,,0.04,1,WeatherHawk,2013-01-11 11:18:00,
2013-01-11 05:23:00,34.6,34.6,28.77,WSW,238,0.0,-999.0,100,0.04,,,0.04,0,WeatherHawk,2013-01-11 11:23:00,
2013-01-11 05:28:00,33.8,33.8,28.77,WSW,243,0.0,-999.0,100,0.04,,,0.04,1,WeatherHawk,2013-01-11 11:28:00,
2013-01-11 05:33:00,34.5,34.5,28.77,WSW,243,0.0,-999.0,100,0.04,,,0.04,0,WeatherHawk,2013-01-11 11:33:00,
2013-01-11 05:38:00,34.4,34.4,28.77,WSW,243,0.0,-999.0,100,0.04,,,0.04,1,WeatherHawk,2013-01-11 11:38:00,
2013-01-11 05:43:00,34.2,34.2,28.77,WSW,243,0.0,-999.0,100,0.04,,,0.04,1,WeatherHawk,2013-01-11 11:43:00,
2013-01-11 05:48:00,34.3,34.3,28.77,WSW,243,0.0,-999.0,100,0.04,,,0.04,0,WeatherHawk,2013-01-11 11:48:00,
2013-01-11 05:53:00,34.2,34.2,28.77,SE,128,0.0,-999.0,100,0.04,,,0.04,0,WeatherHawk,2013-01-11 11:53:00,
2013-01-11 05:55:00,35.2,35.2,28.77,South,180,0.0,-999.0,100,0.00,,,0.04,0,WeatherHawk,2013-01-11 11:55:00,
2013-01-11 05:58:00,33.7,33.7,28.77,ESE,109,0.0,-999.0,100,0.04,,,0.04,0,WeatherHawk,2013-01-11 11:58:00,
2013-01-11 06:00:00,35.4,35.4,28.77,South,183,3.0,-999.0,100,0.00,,,0.04,0,WeatherHawk,2013-01-11 12:00:00,
2013-01-11 06:03:00,33.9,33.9,28.77,ESE,110,0.0,-999.0,100,0.04,,,0.04,0,WeatherHawk,2013-01-11 12:03:00,
2013-01-11 06:08:00,34.3,34.3,28.77,ESE,110,0.0,-999.0,100,0.00,,,0.04,0,WeatherHawk,2013-01-11 12:08:00,
2013-01-11 06:13:00,34.7,34.7,28.76,ESE,110,0.0,-999.0,100,0.00,,,0.04,0,WeatherHawk,2013-01-11 12:13:00,
2013-01-11 06:15:00,34.6,34.6,28.75,NNE,25,2.0,-999.0,100,0.00,,,0.04,0,WeatherHawk,2013-01-11 12:15:00,
2013-01-11 06:18:00,34.7,34.7,28.77,ESE,103,0.0,-999.0,100,0.00,,,0.04,0,WeatherHawk,2013-01-11 12:18:00,
2013-01-11 06:23:00,34.8,34.8,28.77,ESE,103,0.0,-999.0,100,0.00,,,0.04,0,WeatherHawk,2013-01-11 12:23:00,
2013-01-11 06:29:00,34.5,34.5,28.76,East,89,0.0,-999.0,100,0.00,,,0.04,0,WeatherHawk,2013-01-11 12:29:00,
2013-01-11 06:38:00,35.0,35.0,28.76,East,101,0.0,-999.0,100,0.00,,,0.04,0,WeatherHawk,2013-01-11 12:38:00,
2013-01-11 06:43:00,34.8,34.8,28.77,ESE,114,1.0,-999.0,100,0.00,,,0.04,0,WeatherHawk,2013-01-11 12:43:00,
2013-01-11 06:48:00,34.5,34.5,28.77,SE,135,0.0,-999.0,100,0.00,,,0.04,0,WeatherHawk,2013-01-11 12:48:00,
2013-01-11 07:03:00,35.4,35.4,28.77,SSE,158,0.0,-999.0,100,0.00,,,0.04,0,WeatherHawk,2013-01-11 13:03:00,
2013-01-11 07:08:00,35.3,35.3,28.76,East,98,0.0,-999.0,100,0.00,,,0.04,0,WeatherHawk,2013-01-11 13:08:00,
2013-01-11 07:18:00,34.7,34.7,28.75,North,6,0.0,-999.0,100,0.00,,,0.04,0,WeatherHawk,2013-01-11 13:18:00,
2013-01-11 07:23:00,34.6,34.6,28.76,North,6,0.0,-999.0,100,0.00,,,0.04,1,WeatherHawk,2013-01-11 13:23:00,
2013-01-11 07:28:00,34.5,34.5,28.75,NNE,17,0.0,-999.0,100,0.00,,,0.04,2,WeatherHawk,2013-01-11 13:28:00,
2013-01-11 07:33:00,34.4,34.4,28.76,NNE,17,0.0,-999.0,100,0.00,,,0.04,3,WeatherHawk,2013-01-11 13:33:00,
2013-01-11 07:38:00,34.8,34.8,28.76,West,262,0.0,-999.0,100,0.00,,,0.04,0,WeatherHawk,2013-01-11 13:38:00,
2013-01-11 07:43:00,35.0,35.0,28.75,West,262,0.0,-999.0,100,0.00,,,0.04,8,WeatherHawk,2013-01-11 13:43:00,
2013-01-11 07:48:00,35.3,35.3,28.74,NNE,14,0.0,-999.0,100,0.00,,,0.04,13,WeatherHawk,2013-01-11 13:48:00,
2013-01-11 07:53:00,34.7,34.7,28.74,ESE,104,0.0,-999.0,100,0.00,,,0.04,20,WeatherHawk,2013-01-11 13:53:00,
2013-01-11 07:58:00,34.5,34.5,28.75,ESE,104,0.0,-999.0,100,0.00,,,0.04,23,WeatherHawk,2013-01-11 13:58:00,
2013-01-11 08:03:00,35.0,35.0,28.74,ENE,69,0.0,-999.0,100,0.00,,,0.04,30,WeatherHawk,2013-01-11 14:03:00,
2013-01-11 08:08:00,35.2,35.2,28.75,SE,134,0.0,-999.0,100,0.00,,,0.04,73,WeatherHawk,2013-01-11 14:08:00,
2013-01-11 08:13:00,34.6,34.6,28.74,SE,134,0.0,-999.0,100,0.00,,,0.04,72,WeatherHawk,2013-01-11 14:13:00,
2013-01-11 08:18:00,35.0,35.0,28.74,East,95,0.0,-999.0,100,0.00,,,0.04,98,WeatherHawk,2013-01-11 14:18:00,
2013-01-11 08:23:00,35.4,35.4,28.75,SSE,157,0.0,-999.0,100,0.00,,,0.04,102,WeatherHawk,2013-01-11 14:23:00,
2013-01-11 08:33:00,35.3,35.3,28.75,SSE,152,0.0,-999.0,100,0.00,,,0.04,94,WeatherHawk,2013-01-11 14:33:00,
2013-01-11 08:38:00,36.1,36.1,28.75,SSE,152,0.0,-999.0,100,0.00,,,0.04,85,WeatherHawk,2013-01-11 14:38:00,
2013-01-11 08:43:00,35.6,35.6,28.75,NNW,327,0.0,-999.0,100,0.00,,,0.04,92,WeatherHawk,2013-01-11 14:43:00,
2013-01-11 08:48:00,36.9,36.9,28.76,South,179,1.0,-999.0,100,0.00,,,0.04,50,WeatherHawk,2013-01-11 14:48:00,
2013-01-11 08:53:00,37.0,37.0,28.77,SSW,209,0.0,-999.0,100,0.00,,,0.04,61,WeatherHawk,2013-01-11 14:53:00,
2013-01-11 08:58:00,36.7,36.7,28.76,WSW,239,2.0,-999.0,100,0.00,,,0.04,97,WeatherHawk,2013-01-11 14:58:00,
2013-01-11 09:03:00,37.0,37.0,28.76,SW,234,0.0,-999.0,100,0.00,,,0.04,83,WeatherHawk,2013-01-11 15:03:00,
2013-01-11 09:08:00,37.6,37.6,28.76,SSW,210,2.0,-999.0,100,0.00,,,0.04,29,WeatherHawk,2013-01-11 15:08:00,
2013-01-11 09:13:00,37.5,37.5,28.76,South,174,0.0,-999.0,100,0.00,,,0.04,128,WeatherHawk,2013-01-11 15:13:00,
2013-01-11 09:18:00,38.1,38.1,28.76,SSW,212,0.0,-999.0,100,0.00,,,0.04,136,WeatherHawk,2013-01-11 15:18:00,
2013-01-11 09:28:00,38.5,38.5,28.75,SE,130,0.0,-999.0,100,0.00,,,0.04,136,WeatherHawk,2013-01-11 15:28:00,
2013-01-11 09:33:00,37.6,37.6,28.75,SSE,163,0.0,-999.0,100,0.00,,,0.04,48,WeatherHawk,2013-01-11 15:33:00,
2013-01-11 09:38:00,37.5,37.5,28.74,NE,46,0.0,-999.0,100,0.00,,,0.04,132,WeatherHawk,2013-01-11 15:38:00,
2013-01-11 09:43:00,37.8,37.8,28.75,SSE,161,0.0,-999.0,100,0.00,,,0.04,129,WeatherHawk,2013-01-11 15:43:00,
2013-01-11 09:48:00,37.9,37.9,28.75,SE,128,0.0,-999.0,100,0.00,,,0.04,244,WeatherHawk,2013-01-11 15:48:00,
2013-01-11 09:53:00,38.6,38.6,28.75,SSE,150,0.0,-999.0,100,0.00,,,0.04,200,WeatherHawk,2013-01-11 15:53:00,
2013-01-11 10:03:00,38.5,38.5,28.76,SSE,159,2.0,-999.0,100,0.00,,,0.04,132,WeatherHawk,2013-01-11 16:03:00,
2013-01-11 10:08:00,38.3,38.3,28.76,SSE,157,2.0,-999.0,100,0.00,,,0.04,177,WeatherHawk,2013-01-11 16:08:00,
2013-01-11 10:13:00,38.0,38.0,28.76,SSW,194,4.0,-999.0,100,0.00,,,0.04,151,WeatherHawk,2013-01-11 16:13:00,
2013-01-11 10:18:00,38.2,38.2,28.76,WSW,244,4.0,-999.0,100,0.00,,,0.04,71,WeatherHawk,2013-01-11 16:18:00,
2013-01-11 10:23:00,38.2,38.2,28.76,SW,214,0.0,-999.0,100,0.00,,,0.04,76,WeatherHawk,2013-01-11 16:23:00,
2013-01-11 10:28:00,37.8,37.8,28.76,ESE,115,4.0,-999.0,100,0.00,,,0.04,98,WeatherHawk,2013-01-11 16:28:00,
2013-01-11 10:33:00,37.6,37.6,28.75,ESE,105,2.0,-999.0,100,0.00,,,0.04,114,WeatherHawk,2013-01-11 16:33:00,
2013-01-11 10:38:00,37.7,37.7,28.76,ENE,77,2.0,-999.0,100,0.00,,,0.04,135,WeatherHawk,2013-01-11 16:38:00,
2013-01-11 10:43:00,37.7,37.7,28.75,SE,129,2.0,-999.0,100,0.00,,,0.04,153,WeatherHawk,2013-01-11 16:43:00,
2013-01-11 10:48:00,37.6,37.6,28.75,SE,132,2.0,-999.0,100,0.00,,,0.04,210,WeatherHawk,2013-01-11 16:48:00,
2013-01-11 10:53:00,38.3,38.3,28.74,SSE,157,3.0,-999.0,100,0.00,,,0.04,274,WeatherHawk,2013-01-11 16:53:00,
2013-01-11 11:03:00,37.7,37.7,28.75,ESE,119,3.0,-999.0,100,0.00,,,0.04,188,WeatherHawk,2013-01-11 17:03:00,
2013-01-11 11:08:00,38.2,38.2,28.75,ESE,120,3.0,-999.0,100,0.00,,,0.04,178,WeatherHawk,2013-01-11 17:08:00,
2013-01-11 11:13:00,38.1,38.1,28.75,SSE,160,7.0,-999.0,100,0.00,,,0.04,145,WeatherHawk,2013-01-11 17:13:00,
2013-01-11 11:18:00,38.3,38.3,28.75,SSE,148,7.0,-999.0,100,0.00,,,0.04,143,WeatherHawk,2013-01-11 17:18:00,
2013-01-11 11:23:00,38.6,38.6,28.75,SSE,167,2.0,-999.0,100,0.00,,,0.04,168,WeatherHawk,2013-01-11 17:23:00,
2013-01-11 11:28:00,38.3,38.3,28.75,ESE,108,6.0,-999.0,100,0.00,,,0.04,127,WeatherHawk,2013-01-11 17:28:00,
2013-01-11 11:33:00,38.2,38.2,28.75,SE,146,6.0,-999.0,100,0.00,,,0.04,92,WeatherHawk,2013-01-11 17:33:00,
2013-01-11 11:38:00,38.0,38.0,28.75,East,96,3.0,-999.0,100,0.00,,,0.04,88,WeatherHawk,2013-01-11 17:38:00,
2013-01-11 11:43:00,38.2,38.2,28.75,SSE,148,5.0,-999.0,100,0.00,,,0.04,132,WeatherHawk,2013-01-11 17:43:00,
2013-01-11 11:48:00,38.2,38.2,28.75,South,178,6.0,-999.0,100,0.00,,,0.04,129,WeatherHawk,2013-01-11 17:48:00,
2013-01-11 11:53:00,38.2,38.2,28.75,SSE,152,7.0,-999.0,100,0.00,,,0.04,144,WeatherHawk,2013-01-11 17:53:00,
2013-01-11 11:58:00,38.2,38.2,28.75,SE,132,1.0,-999.0,100,0.00,,,0.04,160,WeatherHawk,2013-01-11 17:58:00,
2013-01-11 12:03:00,38.3,38.3,28.75,ESE,123,2.0,-999.0,100,0.00,,,0.04,91,WeatherHawk,2013-01-11 18:03:00,
2013-01-11 12:08:00,38.1,38.1,28.74,South,177,6.0,-999.0,100,0.00,,,0.04,139,WeatherHawk,2013-01-11 18:08:00,
2013-01-11 12:13:00,38.2,38.2,28.74,South,169,4.0,-999.0,100,0.00,,,0.04,158,WeatherHawk,2013-01-11 18:13:00,
2013-01-11 12:18:00,38.1,38.1,28.75,SE,138,5.0,-999.0,100,0.00,,,0.04,120,WeatherHawk,2013-01-11 18:18:00,
2013-01-11 12:23:00,38.3,38.3,28.74,SE,136,2.0,-999.0,100,0.00,,,0.04,152,WeatherHawk,2013-01-11 18:23:00,
2013-01-11 12:28:00,38.4,38.4,28.74,East,97,0.0,-999.0,100,0.00,,,0.04,147,WeatherHawk,2013-01-11 18:28:00,
2013-01-11 12:33:00,38.3,38.3,28.74,SE,137,2.0,-999.0,100,0.00,,,0.04,123,WeatherHawk,2013-01-11 18:33:00,
2013-01-11 12:38:00,38.2,38.2,28.74,ESE,114,0.0,-999.0,100,0.00,,,0.04,110,WeatherHawk,2013-01-11 18:38:00,
2013-01-11 12:43:00,38.6,38.6,28.74,SE,143,3.0,-999.0,100,0.00,,,0.04,87,WeatherHawk,2013-01-11 18:43:00,
2013-01-11 12:48:00,38.9,38.9,28.74,SSE,153,0.0,-999.0,100,0.00,,,0.04,165,WeatherHawk,2013-01-11 18:48:00,
2013-01-11 12:53:00,38.4,38.4,28.74,East,100,1.0,-999.0,100,0.00,,,0.04,152,WeatherHawk,2013-01-11 18:53:00,
2013-01-11 12:58:00,38.3,38.3,28.74,ESE,116,2.0,-999.0,100,0.00,,,0.04,104,WeatherHawk,2013-01-11 18:58:00,
2013-01-11 13:03:00,38.5,38.5,28.73,East,98,4.0,-999.0,100,0.00,,,0.04,140,WeatherHawk,2013-01-11 19:03:00,
2013-01-11 13:08:00,38.2,38.2,28.73,ESE,108,0.0,-999.0,100,0.00,,,0.04,120,WeatherHawk,2013-01-11 19:08:00,
2013-01-11 13:13:00,38.5,38.5,28.74,SE,134,1.0,-999.0,100,0.00,,,0.04,124,WeatherHawk,2013-01-11 19:13:00,
2013-01-11 13:23:00,38.5,38.5,28.74,SE,124,0.0,-999.0,100,0.00,,,0.04,117,WeatherHawk,2013-01-11 19:23:00,
2013-01-11 13:28:00,39.1,39.1,28.74,SE,130,1.0,-999.0,100,0.00,,,0.04,123,WeatherHawk,2013-01-11 19:28:00,
2013-01-11 13:33:00,39.1,39.1,28.73,SE,128,1.0,-999.0,100,0.00,,,0.04,119,WeatherHawk,2013-01-11 19:33:00,
2013-01-11 13:38:00,39.1,39.1,28.74,SSE,157,0.0,-999.0,100,0.00,,,0.04,148,WeatherHawk,2013-01-11 19:38:00,
2013-01-11 13:43:00,39.1,39.1,28.73,ESE,123,2.0,-999.0,100,0.00,,,0.04,90,WeatherHawk,2013-01-11 19:43:00,
2013-01-11 13:48:00,39.2,39.2,28.74,SSE,157,4.0,-999.0,100,0.00,,,0.04,74,WeatherHawk,2013-01-11 19:48:00,
2013-01-11 13:54:00,39.2,39.2,28.74,ESE,115,0.0,-999.0,100,0.00,,,0.04,128,WeatherHawk,2013-01-11 19:54:00,
2013-01-11 14:03:00,39.0,39.0,28.73,ESE,121,0.0,-999.0,100,0.00,,,0.04,110,WeatherHawk,2013-01-11 20:03:00,
2013-01-11 14:08:00,39.3,39.3,28.74,SE,133,2.0,-999.0,100,0.00,,,0.04,95,WeatherHawk,2013-01-11 20:08:00,
2013-01-11 14:13:00,39.2,39.2,28.74,East,91,0.0,-999.0,100,0.00,,,0.04,94,WeatherHawk,2013-01-11 20:13:00,
2013-01-11 14:18:00,39.3,39.3,28.73,East,83,0.0,-999.0,100,0.00,,,0.04,83,WeatherHawk,2013-01-11 20:18:00,
2013-01-11 14:23:00,39.4,39.4,28.73,NE,54,1.0,-999.0,100,0.00,,,0.04,96,WeatherHawk,2013-01-11 20:23:00,
2013-01-11 14:28:00,39.4,39.4,28.72,ENE,69,0.0,-999.0,100,0.00,,,0.04,174,WeatherHawk,2013-01-11 20:28:00,
2013-01-11 14:33:00,39.2,39.2,28.72,SE,126,4.0,-999.0,100,0.00,,,0.04,121,WeatherHawk,2013-01-11 20:33:00,
2013-01-11 14:43:00,39.2,39.2,28.72,ESE,121,0.0,-999.0,100,0.00,,,0.04,77,WeatherHawk,2013-01-11 20:43:00,
2013-01-11 14:53:00,39.5,39.5,28.72,ESE,120,4.0,-999.0,100,0.00,,,0.04,76,WeatherHawk,2013-01-11 20:53:00,
2013-01-11 14:58:00,39.9,39.9,28.72,ESE,111,6.0,-999.0,100,0.00,,,0.04,64,WeatherHawk,2013-01-11 20:58:00,
2013-01-11 15:03:00,40.0,40.0,28.72,SE,134,6.0,-999.0,100,0.00,,,0.04,55,WeatherHawk,2013-01-11 21:03:00,
2013-01-11 15:08:00,39.6,39.6,28.72,SSW,194,3.0,-999.0,100,0.00,,,0.04,57,WeatherHawk,2013-01-11 21:08:00,
2013-01-11 15:13:00,39.6,39.6,28.72,SE,126,5.0,-999.0,100,0.00,,,0.04,48,WeatherHawk,2013-01-11 21:13:00,
2013-01-11 15:18:00,39.2,39.2,28.73,ESE,114,3.0,-999.0,100,0.00,,,0.04,32,WeatherHawk,2013-01-11 21:18:00,
2013-01-11 15:23:00,39.3,39.3,28.73,SSE,151,0.0,-999.0,100,0.00,,,0.04,28,WeatherHawk,2013-01-11 21:23:00,
2013-01-11 15:28:00,40.0,40.0,28.72,SE,143,6.0,-999.0,100,0.00,,,0.04,28,WeatherHawk,2013-01-11 21:28:00,
2013-01-11 15:33:00,39.3,39.3,28.73,ESE,107,3.0,-999.0,100,0.00,,,0.04,25,WeatherHawk,2013-01-11 21:33:00,
2013-01-11 15:38:00,39.6,39.6,28.72,East,85,5.0,-999.0,100,0.00,,,0.04,20,WeatherHawk,2013-01-11 21:38:00,
2013-01-11 15:43:00,39.4,39.4,28.72,East,100,3.0,-999.0,100,0.00,,,0.04,17,WeatherHawk,2013-01-11 21:43:00,
2013-01-11 15:48:00,39.4,39.4,28.72,East,90,4.0,-999.0,100,0.00,,,0.04,17,WeatherHawk,2013-01-11 21:48:00,
2013-01-11 15:53:00,39.6,39.6,28.72,SE,132,5.0,-999.0,100,0.00,,,0.04,13,WeatherHawk,2013-01-11 21:53:00,
2013-01-11 15:58:00,39.3,39.3,28.73,NE,52,2.0,-999.0,100,0.00,,,0.04,14,WeatherHawk,2013-01-11 21:58:00,
2013-01-11 16:08:00,39.8,39.8,28.72,SSE,147,2.0,-999.0,100,0.00,,,0.04,10,WeatherHawk,2013-01-11 22:08:00,
2013-01-11 16:13:00,39.9,39.9,28.72,East,101,3.0,-999.0,100,0.00,,,0.04,7,WeatherHawk,2013-01-11 22:13:00,
2013-01-11 16:18:00,40.9,40.9,28.72,South,175,5.0,-999.0,100,0.00,,,0.04,7,WeatherHawk,2013-01-11 22:18:00,
2013-01-11 16:23:00,40.3,40.3,28.72,SE,138,6.0,-999.0,100,0.00,,,0.04,5,WeatherHawk,2013-01-11 22:23:00,
2013-01-11 16:28:00,40.1,40.1,28.72,South,186,5.0,-999.0,100,0.00,,,0.04,4,WeatherHawk,2013-01-11 22:28:00,
2013-01-11 16:33:00,40.3,40.3,28.72,East,92,4.0,-999.0,100,0.00,,,0.04,1,WeatherHawk,2013-01-11 22:33:00,
2013-01-11 16:38:00,41.5,41.5,28.73,SSE,148,7.0,-999.0,100,0.00,,,0.04,1,WeatherHawk,2013-01-11 22:38:00,
2013-01-11 16:43:00,41.1,41.1,28.73,East,82,7.0,-999.0,100,0.00,,,0.04,0,WeatherHawk,2013-01-11 22:43:00,
2013-01-11 16:48:00,41.5,41.5,28.73,ESE,116,4.0,-999.0,100,0.00,,,0.04,2,WeatherHawk,2013-01-11 22:48:00,
2013-01-11 16:53:00,41.6,41.6,28.72,SE,145,6.0,-999.0,100,0.00,,,0.04,0,WeatherHawk,2013-01-11 22:53:00,
2013-01-11 16:58:00,42.0,42.0,28.72,SSE,147,10.0,-999.0,100,0.00,,,0.04,0,WeatherHawk,2013-01-11 22:58:00,
2013-01-11 17:03:00,41.9,41.9,28.72,ESE,121,9.0,-999.0,100,0.00,,,0.04,0,WeatherHawk,2013-01-11 23:03:00,
2013-01-11 17:08:00,42.1,42.1,28.72,SSE,149,11.0,-999.0,100,0.00,,,0.04,0,WeatherHawk,2013-01-11 23:08:00,
2013-01-11 17:13:00,41.8,41.8,28.72,SE,141,3.0,-999.0,100,0.00,,,0.04,1,WeatherHawk,2013-01-11 23:13:00,
2013-01-11 17:19:00,42.5,42.5,28.73,SSE,166,11.0,-999.0,100,0.00,,,0.04,0,WeatherHawk,2013-01-11 23:19:00,
2013-01-11 17:28:00,41.4,41.4,28.72,SE,124,5.0,-999.0,100,0.00,,,0.04,0,WeatherHawk,2013-01-11 23:28:00,
2013-01-11 17:38:00,42.0,42.0,28.71,ESE,122,5.0,-999.0,100,0.00,,,0.04,0,WeatherHawk,2013-01-11 23:38:00,
2013-01-11 17:43:00,41.6,41.6,28.72,ESE,123,3.0,-999.0,100,0.00,,,0.04,0,WeatherHawk,2013-01-11 23:43:00,
2013-01-11 17:48:00,42.3,42.3,28.71,SSE,158,6.0,-999.0,100,0.00,,,0.04,0,WeatherHawk,2013-01-11 23:48:00,
2013-01-11 17:53:00,42.5,42.5,28.71,SSE,147,8.0,-999.0,100,0.00,,,0.04,0,WeatherHawk,2013-01-11 23:53:00,
2013-01-11 17:58:00,42.7,42.7,28.72,SSW,192,8.0,-999.0,100,0.00,,,0.04,0,WeatherHawk,2013-01-11 23:58:00,
2013-01-11 18:03:00,42.9,42.9,28.71,SSE,152,11.0,-999.0,100,0.00,,,0.04,0,WeatherHawk,2013-01-12 00:03:00,
2013-01-11 18:08:00,42.7,42.7,28.71,SE,139,5.0,-999.0,100,0.00,,,0.04,0,WeatherHawk,2013-01-12 00:08:00,
2013-01-11 18:13:00,42.9,42.9,28.70,ESE,113,6.0,-999.0,100,0.00,,,0.04,0,WeatherHawk,2013-01-12 00:13:00,
2013-01-11 18:18:00,43.3,43.3,28.70,SE,133,9.0,-999.0,100,0.00,,,0.04,0,WeatherHawk,2013-01-12 00:18:00,
2013-01-11 18:23:00,43.3,43.3,28.70,ESE,104,13.0,-999.0,100,0.00,,,0.04,0,WeatherHawk,2013-01-12 00:23:00,
2013-01-11 18:28:00,43.9,43.9,28.69,SE,134,13.0,-999.0,100,0.00,,,0.04,0,WeatherHawk,2013-01-12 00:28:00,
2013-01-11 18:33:00,43.4,43.4,28.68,ENE,74,9.0,-999.0,100,0.00,,,0.04,0,WeatherHawk,2013-01-12 00:33:00,
2013-01-11 18:38:00,43.6,43.6,28.69,ESE,104,10.0,-999.0,100,0.00,,,0.04,0,WeatherHawk,2013-01-12 00:38:00,
2013-01-11 18:43:00,44.1,44.1,28.69,SE,134,13.0,-999.0,100,0.00,,,0.04,0,WeatherHawk,2013-01-12 00:43:00,
2013-01-11 18:48:00,43.9,43.9,28.69,SE,128,10.0,-999.0,100,0.00,,,0.04,0,WeatherHawk,2013-01-12 00:48:00,
2013-01-11 18:53:00,44.2,44.2,28.69,SE,129,8.0,-999.0,100,0.00,,,0.04,0,WeatherHawk,2013-01-12 00:53:00,
2013-01-11 18:58:00,44.8,44.8,28.67,SSE,158,18.0,-999.0,100,0.00,,,0.04,0,WeatherHawk,2013-01-12 00:58:00,
2013-01-11 19:03:00,45.6,45.6,28.68,SSE,162,19.0,-999.0,100,0.00,,,0.04,0,WeatherHawk,2013-01-12 01:03:00,
2013-01-11 19:08:00,45.3,45.3,28.68,East,98,13.0,-999.0,100,0.00,,,0.04,0,WeatherHawk,2013-01-12 01:08:00,
2013-01-11 19:13:00,45.7,45.7,28.69,SE,136,10.0,-999.0,100,0.00,,,0.04,0,WeatherHawk,2013-01-12 01:13:00,
2013-01-11 19:18:00,46.0,46.0,28.69,SE,135,12.0,-999.0,100,0.00,,,0.04,0,WeatherHawk,2013-01-12 01:18:00,
2013-01-11 19:23:00,46.2,46.2,28.70,ESE,112,13.0,-999.0,100,0.00,,,0.04,0,WeatherHawk,2013-01-12 01:23:00,
2013-01-11 19:28:00,46.4,46.4,28.70,SSE,161,14.0,-999.0,100,0.00,,,0.04,0,WeatherHawk,2013-01-12 01:28:00,
2013-01-11 19:33:00,45.8,45.8,28.69,SE,137,11.0,-999.0,100,0.00,,,0.04,0,WeatherHawk,2013-01-12 01:33:00,
2013-01-11 19:38:00,45.7,45.7,28.70,East,83,11.0,-999.0,100,0.00,,,0.04,0,WeatherHawk,2013-01-12 01:38:00,
2013-01-11 19:43:00,46.1,46.1,28.70,SE,145,11.0,-999.0,100,0.00,,,0.04,0,WeatherHawk,2013-01-12 01:43:00,
2013-01-11 19:48:00,45.9,45.9,28.70,East,97,10.0,-999.0,100,0.00,,,0.04,0,WeatherHawk,2013-01-12 01:48:00,
2013-01-11 19:53:00,46.1,46.1,28.69,SE,125,13.0,-999.0,100,0.00,,,0.04,0,WeatherHawk,2013-01-12 01:53:00,
2013-01-11 19:58:00,46.2,46.2,28.68,SE,141,10.0,-999.0,100,0.00,,,0.04,1,WeatherHawk,2013-01-12 01:58:00,
2013-01-11 20:03:00,46.4,46.4,28.69,SE,135,11.0,-999.0,100,0.00,,,0.04,0,WeatherHawk,2013-01-12 02:03:00,
2013-01-11 20:08:00,46.2,46.2,28.69,ESE,118,8.0,-999.0,100,0.00,,,0.04,0,WeatherHawk,2013-01-12 02:08:00,
2013-01-11 20:13:00,46.2,46.2,28.69,SE,129,8.0,-999.0,100,0.00,,,0.04,0,WeatherHawk,2013-01-12 02:13:00,
2013-01-11 20:18:00,46.2,46.2,28.70,SSE,168,8.0,-999.0,100,0.00,,,0.04,0,WeatherHawk,2013-01-12 02:18:00,
2013-01-11 20:23:00,46.7,46.7,28.69,ESE,111,13.0,-999.0,100,0.00,,,0.04,0,WeatherHawk,2013-01-12 02:23:00,
2013-01-11 20:28:00,46.9,46.9,28.69,SE,145,11.0,-999.0,100,0.00,,,0.04,0,WeatherHawk,2013-01-12 02:28:00,
2013-01-11 20:33:00,46.3,46.3,28.69,SE,143,8.0,-999.0,100,0.00,,,0.04,0,WeatherHawk,2013-01-12 02:33:00,
2013-01-11 20:38:00,46.0,46.0,28.69,East,95,9.0,-999.0,100,0.00,,,0.04,0,WeatherHawk,2013-01-12 02:38:00,
2013-01-11 20:43:00,46.9,46.9,28.69,SSE,147,12.0,-999.0,100,0.00,,,0.04,0,WeatherHawk,2013-01-12 02:43:00,
2013-01-11 20:48:00,46.4,46.4,28.69,SSE,150,8.0,-999.0,100,0.00,,,0.04,1,WeatherHawk,2013-01-12 02:48:00,
2013-01-11 20:53:00,46.4,46.1,28.69,SSE,152,7.0,-999.0,99,0.00,,,0.04,0,WeatherHawk,2013-01-12 02:53:00,
2013-01-11 20:58:00,47.0,46.7,28.68,SE,142,15.0,-999.0,99,0.00,,,0.04,0,WeatherHawk,2013-01-12 02:58:00,
2013-01-11 21:03:00,46.9,46.6,28.68,South,181,12.0,-999.0,99,0.00,,,0.04,0,WeatherHawk,2013-01-12 03:03:00,
2013-01-11 21:08:00,47.0,46.2,28.67,South,178,9.0,-999.0,97,0.00,,,0.04,0,WeatherHawk,2013-01-12 03:08:00,
2013-01-11 21:13:00,46.3,45.7,28.66,SSE,164,8.0,-999.0,98,0.00,,,0.04,0,WeatherHawk,2013-01-12 03:13:00,
2013-01-11 21:18:00,47.5,46.7,28.67,South,180,9.0,-999.0,97,0.00,,,0.04,0,WeatherHawk,2013-01-12 03:18:00,
2013-01-11 21:23:00,46.6,45.2,28.67,South,180,8.0,-999.0,95,0.00,,,0.04,0,WeatherHawk,2013-01-12 03:23:00,
2013-01-11 21:28:00,46.9,45.6,28.69,SSE,168,6.0,-999.0,95,0.00,,,0.04,0,WeatherHawk,2013-01-12 03:28:00,
2013-01-11 21:33:00,45.8,44.8,28.68,East,96,3.0,-999.0,96,0.00,,,0.04,0,WeatherHawk,2013-01-12 03:33:00,
2013-01-11 21:38:00,46.9,45.9,28.69,South,178,4.0,-999.0,96,0.00,,,0.04,0,WeatherHawk,2013-01-12 03:38:00,
2013-01-11 21:43:00,46.7,45.6,28.68,SE,133,7.0,-999.0,96,0.00,,,0.04,0,WeatherHawk,2013-01-12 03:43:00,
2013-01-11 21:53:00,47.7,46.3,28.69,SSE,157,9.0,-999.0,95,0.00,,,0.04,0,WeatherHawk,2013-01-12 03:53:00,
2013-01-11 22:03:00,47.9,45.7,28.68,SSE,157,6.0,-999.0,92,0.00,,,0.04,0,WeatherHawk,2013-01-12 04:03:00,
2013-01-11 22:05:00,48.6,45.5,28.66,South,178,11.0,-999.0,89,0.00,,,0.04,0,WeatherHawk,2013-01-12 04:05:00,
2013-01-11 22:08:00,47.4,44.6,28.68,South,174,4.0,-999.0,90,0.00,,,0.04,0,WeatherHawk,2013-01-12 04:08:00,
2013-01-11 22:10:00,47.2,44.1,28.66,South,183,7.0,-999.0,89,0.00,,,0.04,0,WeatherHawk,2013-01-12 04:10:00,
2013-01-11 22:13:00,47.8,45.3,28.68,SSE,161,8.0,-999.0,91,0.00,,,0.04,0,WeatherHawk,2013-01-12 04:13:00,
2013-01-11 22:15:00,47.5,44.4,28.66,SSE,148,9.0,-999.0,89,0.00,,,0.04,0,WeatherHawk,2013-01-12 04:15:00,
2013-01-11 22:18:00,48.5,45.7,28.69,SE,144,9.0,-999.0,90,0.00,,,0.04,0,WeatherHawk,2013-01-12 04:18:00,
2013-01-11 22:20:00,47.4,44.4,28.66,East,96,9.0,-999.0,89,0.00,,,0.04,0,WeatherHawk,2013-01-12 04:20:00,
2013-01-11 22:23:00,47.8,45.0,28.68,SSE,155,6.0,-999.0,90,0.00,,,0.04,1,WeatherHawk,2013-01-12 04:23:00,
2013-01-11 22:25:00,47.1,44.0,28.66,SE,144,9.0,-999.0,89,0.00,,,0.04,0,WeatherHawk,2013-01-12 04:25:00,
2013-01-11 22:30:00,47.0,43.6,28.66,SE,127,8.0,-999.0,88,0.00,,,0.04,0,WeatherHawk,2013-01-12 04:30:00,
2013-01-11 22:33:00,48.8,45.7,28.68,SSE,156,11.0,-999.0,89,0.00,,,0.04,0,WeatherHawk,2013-01-12 04:33:00,
2013-01-11 22:34:00,46.8,43.7,28.66,South,177,5.0,-999.0,89,0.00,,,0.04,0,WeatherHawk,2013-01-12 04:34:00,
2013-01-11 22:35:00,46.7,43.6,28.66,SSE,152,8.0,-999.0,89,0.00,,,0.04,0,WeatherHawk,2013-01-12 04:35:00,
2013-01-11 22:38:00,48.1,45.4,28.67,ESE,120,13.0,-999.0,90,0.00,,,0.04,0,WeatherHawk,2013-01-12 04:38:00,
2013-01-11 22:40:00,47.3,44.2,28.66,East,95,7.0,-999.0,89,0.00,,,0.04,0,WeatherHawk,2013-01-12 04:40:00,
2013-01-11 22:43:00,47.7,44.4,28.67,SSE,152,9.0,-999.0,88,0.00,,,0.04,0,WeatherHawk,2013-01-12 04:43:00,
2013-01-11 22:45:00,47.2,44.2,28.66,SSE,149,10.0,-999.0,89,0.00,,,0.04,0,WeatherHawk,2013-01-12 04:45:00,
2013-01-11 22:48:00,48.3,45.2,28.67,SE,129,14.0,-999.0,89,0.00,,,0.04,0,WeatherHawk,2013-01-12 04:48:00,
2013-01-11 22:50:00,46.4,43.1,28.66,SSE,154,8.0,-999.0,88,0.00,,,0.04,0,WeatherHawk,2013-01-12 04:50:00,
2013-01-11 22:53:00,47.3,44.3,28.67,South,170,8.0,-999.0,89,0.00,,,0.04,0,WeatherHawk,2013-01-12 04:53:00,
2013-01-11 22:55:00,47.2,43.8,28.66,SE,145,9.0,-999.0,88,0.00,,,0.04,0,WeatherHawk,2013-01-12 04:55:00,
2013-01-11 22:58:00,48.2,45.4,28.66,SSE,160,10.0,-999.0,90,0.00,,,0.04,0,WeatherHawk,2013-01-12 04:58:00,
2013-01-11 23:00:00,47.1,43.7,28.66,SSW,192,9.0,-999.0,88,0.00,,,0.04,0,WeatherHawk,2013-01-12 05:00:00,
2013-01-11 23:05:00,47.8,44.4,28.66,SSE,155,10.0,-999.0,88,0.00,,,0.00,0,WeatherHawk,2013-01-12 05:05:00,
2013-01-11 23:10:00,47.1,43.2,28.66,SE,138,9.0,-999.0,86,0.00,,,0.00,0,WeatherHawk,2013-01-12 05:10:00,
2013-01-11 23:15:00,47.9,43.9,28.66,SSE,157,10.0,-999.0,86,0.00,,,0.00,0,WeatherHawk,2013-01-12 05:15:00,
2013-01-11 23:20:00,47.8,43.8,28.66,SSE,163,9.0,-999.0,86,0.00,,,0.00,0,WeatherHawk,2013-01-12 05:20:00,
2013-01-11 23:25:00,47.6,43.0,28.66,SSW,193,7.0,-999.0,84,0.00,,,0.00,0,WeatherHawk,2013-01-12 05:25:00,
2013-01-11 23:30:00,47.8,43.5,28.66,South,170,10.0,-999.0,85,0.00,,,0.00,0,WeatherHawk,2013-01-12 05:30:00,
2013-01-11 23:35:00,47.5,43.0,28.66,SE,146,6.0,-999.0,84,0.00,,,0.00,0,WeatherHawk,2013-01-12 05:35:00,
2013-01-11 23:39:00,48.5,43.9,28.66,SSE,154,13.0,-999.0,84,0.00,,,0.00,0,WeatherHawk,2013-01-12 05:39:00,
2013-01-11 23:40:00,47.8,42.8,28.65,SSE,149,9.0,-999.0,83,0.00,,,0.00,0,WeatherHawk,2013-01-12 05:40:00,
2013-01-11 23:45:00,47.8,43.2,28.66,South,184,6.0,-999.0,84,0.00,,,0.00,0,WeatherHawk,2013-01-12 05:45:00,
2013-01-11 23:50:00,48.0,43.4,28.66,ESE,114,10.0,-999.0,84,0.00,,,0.00,0,WeatherHawk,2013-01-12 05:50:00,
2013-01-11 23:55:00,47.8,43.2,28.66,SSE,162,9.0,-999.0,84,0.00,,,0.00,0,WeatherHawk,2013-01-12 05:55:00,